Tracking 31027 objects as of 19-Jul-2025
HD Live streaming from Space Station
objects crossing your sky now

CZ-2F DEB

Track CZ-2F DEB now!
10-day predictions


NORAD ID: 53364
Int'l Code: 2022-093H
Perigee: 465.5 km
Apogee: 578.4 km
Inclination: 50.0 °
Period: 94.9 minutes
Semi major axis: 6892 km
RCS: Unknown
Launch date: August 4, 2022
Source: People's Republic of China (PRC)
Launch site: Jiuquan Satellite Launch Center, China (JSC)

Note: This is SATELLITE DEBRIS
Your satellite tracking list
STARLINK-5129
Track 1 satellite(s)




NASA's NSSDC Master Catalog

Two Line Element Set (TLE):
1 53364U 22093H   25199.86346075  .00006277  00000-0  30283-3 0  9993
2 53364  50.0243  21.4283 0081893 167.0483 193.2598 15.17025998162727
Source of the keplerian elements: AFSPC